Regional Weather Roundup
Issued by NWS

Home | Current Version | Previous Version | Graphics & Text | Print | Product List | Glossary On
Versions: 1 2 3 4 5 6 7 8 9 10 11 12 13 14 15 16 17 18 19 20 21 22 23 24 25 26 27 28 29 30 31 32 33 34 35 36 37 38 39 40 41 42 43 44 45 46 47 48 49 50
000
ASUS45 KSLC 192210
RWRUT

UTAH REGIONAL WEATHER ROUNDUP
NATIONAL WEATHER SERVICE SALT LAKE CITY UT
300 PM MST THU JAN 19 2017

UTZ001>011-023>025-192300-

NORTHERN UTAH

CITY           SKY/WX    TMP DP  RH WIND       PRES   REMARKS
BRIGHAM CITY     N/A     29  27  90 N5        29.75S VSB 3/4 WCI  24
DUGWAY         LGT SNOW  35  33  96 CALM      29.75
HILL AFB       SNOW      33  31  96 S8        29.72R VSB 1/2 WCI  25
LOGAN          SNOW      26  24  92 CALM      29.74R VSB 1/2
OGDEN          SNOW      30  29  96 CALM      29.72F VSB 1/2
SALT LAKE CITY LGT SNOW  35  33  92 SE3       29.72F FOG
TOOELE VALLEY  LGT SNOW  30  30 100 N3        29.74S
WENDOVER       CLOUDY    27  21  80 E6        29.74F WCI  20
HEBER CITY     LGT SNOW  34  30  86 CALM      29.68S
WEST JORDAN    CLOUDY    35  35 100 S6        29.73S WCI  30

$$

UTZ011>015-024>027-192300-

CENTRAL/NORTHEAST UTAH

CITY           SKY/WX    TMP DP  RH WIND       PRES   REMARKS
PROVO AIRPORT  MIX PCPN  36  32  85 CALM      29.74S FOG
MOAB/CANYONLAN LGT SNOW  32  31  96 N8        29.75F VSB 3/4 WCI  25
DELTA          CLOUDY    32  32 100 S5        29.73S VSB 1   WCI  27
PRICE          CLOUDY    30  27  88 E3        29.72F
ROOSEVELT      LGT SNOW  19  12  73 CALM      29.82S
VERNAL         CLOUDY    18  12  77 CALM      29.79S

$$

UTZ013>016-019>022-027-192300-

SOUTHERN UTAH

CITY           SKY/WX    TMP DP  RH WIND       PRES   REMARKS
BRYCE CANYON   CLOUDY    29  27  92 SE10      29.72F FOG     WCI  20
CEDAR CITY     CLOUDY    37  31  78 SW9       29.71F WCI  30
MILFORD        CLOUDY    36  34  92 S12       29.71F WCI  28
ST GEORGE      CLOUDY    45  37  76 N3        29.80S
HANKSVILLE     CLOUDY    34  30  86 MISG      29.77S
BLANDING       CLOUDY    32  32 100 SE3       29.87S

$$

REGIONAL REPORTS     COLORADO/ARIZONA

CITY           SKY/WX    TMP DP  RH WIND       PRES   REMARKS
CRAIG, CO      CLOUDY    28  19  69 SW7       29.72F WCI  21
GRAND JUNCTION CLOUDY    35  29  78 NW6       29.74F WCI  30
RIFLE, CO      CLOUDY    37  24  59 E3        29.73F
MONTROSE, CO   CLOUDY    39  26  59 NW5       29.75S
CORTEZ, CO     FLURRIES  36  30  79 SW6       29.80F WCI  31
COLORADO CITY  DRIZZLE   39  37  93 SW8       29.79S WCI  34
PAGE, AZ       CLOUDY    41  32  70 E3        29.75F
GRAND CANYON   SNOW      32  32 100 SW10      29.80S VSB 1/2 WCI  24
KINGMAN, AZ    LGT RAIN  42  37  82 S18       29.82F
FLAGSTAFF, AZ  LGT SNOW  31  29  92 SW16      29.80F FOG     WCI  20

$$

REGIONAL REPORTS    NEVADA/IDAHO/WYOMING

CITY           SKY/WX    TMP DP  RH WIND       PRES   REMARKS
LAS VEGAS, NV  PTSUNNY   54  35  48 S14G22    29.73S
ELY, NY        LGT SNOW  31  30  96 N6        29.70S FOG     WCI  25
ELKO, NV       PTSUNNY   40  27  59 SW8       29.68F WCI  34
POCATELLO, ID  CLOUDY    37  30  75 S12       29.66F WCI  29
BURLEY, ID     CLOUDY    37  30  75 S13       29.65S WCI  29
FORT BRIDGER,  LGT SNOW  25  25 100 SW3       29.69F
EVANSTON, WY   LGT SNOW  29  25  85 SW12      29.66F FOG     WCI  19
ROCK SPRINGS,  LGT SNOW  16  12  84 NE5       29.67F FOG     WCI   9
KEMMERER, WY   LGT SNOW  27  21  80 W6        29.66F WCI  20

$$



USA.gov is the U.S. government's official web portal to all federal, state and local government web resources and services.